User: anonymous
Location: Caltech
(34.1382°N, 118.1253°W)
Time: 03:13:42
(UTC-07:00)
Language:

Cosmos 1697 Rocket - Orbit

View from above orbital plane
View from above orbital plane
View from above satellite
View from above satellite

Ground track
Ground track

The orbit data is extracted from the following two-line orbital elements,

1 16182U 85097B   14105.10686294 -.00000213  00000-0 -83749-4 0  2451
2 16182 071.0028 286.5231 0006712 023.2483 115.1564 14.16110329472120
Epoch (UTC): 15 April 2014 02:33:52
Eccentricity: 0.0006712
inclination: 71.0028°
perigee height: 833 km
apogee height: 843 km
right ascension of ascending node: 286.5231°
argument of perigee: 23.2483°
revolutions per day: 14.16110329
mean anomaly at epoch: 115.1564°
orbit number at epoch: 47212

The dashed part of the orbit path shows where the satellite is in the earth's shadow,  

DLR